Location: Newark
(43.9494°N, 6.8108°E)
Time: 01:05:37
(UTC+00:00)

A-11 Canister half - Pass Details

Date: 23 October 2019
Orbit: 1514 x 1686 km, 47.2° (Epoch: 18 November)

Event Time Altitude Azimuth Distance (km) Brightness Sun altitude
Rises 02:38:27 0° 260° (W) 4,896 - -35.9°
Reaches altitude 10° 02:41:39 10° 262° (W) 3,892 - -35.4°
Exits shadow 02:50:25 69° 295° (WNW) 1,704 8.9 -33.9°
Maximum altitude 02:51:37 78° 349° (N) 1,643 9.0 -33.7°
Drops below altitude 10° 03:01:14 10° 76° (ENE) 3,759 11.9 -32.0°
Sets 03:04:16 0° 78° (ENE) 4,722 12.7 -31.5°
